Powrót do katalogu

STARLINK-32479

AktywnyŁącznośćVLEO
NORAD 62148·PAYLOAD·🇺🇸 United States

Wystrzelony Nov 30, 2024 z Cape Canaveral Space Force Station

Loading…

Następne Przeloty (najbliższe 24 godziny)

TLE

ŚwieżeSource: CelesTrak SupGP

Epoka: Sep 14, 2026, 22:41 UTC

1 62148C 24224K   26257.94562500 -.00036581  00000+0 -13249-2 0  2570
2 62148  43.0022 169.2733 0001475 266.0623 124.5551 15.27597522    16

Śledź STARLINK-32479 w czasie rzeczywistym z AllMySat

Download on the App Store